STARLINK-32656

Last updated on Wed Jan 29 2025 00:02:04 GMT+0000 (Coordinated Universal Time)

1 62452U 24251W 25028.36831855 .00000612 00000+0 19051-4 0 9997 2 62452 53.1598 67.0923 0001074 84.5279 275.5852 15.49320166 5608
UTC large
Height (km)
Speed (km/s)
/
Latitude / Longitude
Inclination (degrees)
Orbital Period (minutes)
Azimuth
Elevation
Range (km)
Doppler Factor

Next 0 passes for location: London (51.5072 / 0.1276)

Sorry there are no passes over London.